GLD1974 TFFS-TFFM

Flight info

Callsign GLD1974
Flight time 0h 9m
Altitude 3000
Route 155145N0612014W
Aircraft C172/L-SFG/C

Departure

Time 2026-05-04 20:31
Airport Terre-de-Haut Airport (TFFS)

Arrival

Time 2026-05-04 20:40
Airport Marie-Galante Airport (TFFM)
Time Latitude Longitude Altitude Speed Heading
2026-05-04 20:23 15.86525 -61.57936 15 ft 0 kts 121°
2026-05-04 20:27 15.86518 -61.57924 14 ft 4 kts 129°
2026-05-04 20:27 15.86483 -61.57927 14 ft 10 kts 241°
2026-05-04 20:27 15.86460 -61.58005 14 ft 13 kts 255°
2026-05-04 20:28 15.86433 -61.58103 12 ft 16 kts 255°
2026-05-04 20:28 15.86406 -61.58207 12 ft 13 kts 258°
2026-05-04 20:28 15.86370 -61.58277 14 ft 8 kts 240°
2026-05-04 20:28 15.86386 -61.58276 14 ft 6 kts 75°
2026-05-04 20:29 15.86430 -61.58121 12 ft 41 kts 74°
2026-05-04 20:29 15.86552 -61.57815 81 ft 50 kts 79°
2026-05-04 20:29 15.86623 -61.57431 152 ft 58 kts 91°
2026-05-04 20:29 15.86643 -61.56977 239 ft 68 kts 87°
2026-05-04 20:30 15.86744 -61.56462 327 ft 78 kts 82°
2026-05-04 20:30 15.86869 -61.55891 404 ft 85 kts 82°
2026-05-04 20:30 15.87016 -61.55274 485 ft 91 kts 83°
2026-05-04 20:30 15.87158 -61.54598 573 ft 99 kts 84°
2026-05-04 20:31 15.87249 -61.53895 653 ft 95 kts 90°
2026-05-04 20:31 15.87247 -61.53214 733 ft 95 kts 95°
2026-05-04 20:31 15.87183 -61.52531 804 ft 97 kts 97°
2026-05-04 20:31 15.87102 -61.51822 883 ft 102 kts 96°
2026-05-04 20:32 15.87012 -61.51072 962 ft 106 kts 97°
2026-05-04 20:32 15.86924 -61.50299 996 ft 110 kts 96°
2026-05-04 20:32 15.86826 -61.49487 997 ft 116 kts 96°
2026-05-04 20:32 15.86711 -61.48662 1001 ft 114 kts 97°
2026-05-04 20:33 15.86594 -61.47850 1002 ft 113 kts 98°
2026-05-04 20:33 15.86512 -61.47046 1005 ft 113 kts 97°
2026-05-04 20:33 15.86433 -61.46234 1002 ft 113 kts 96°
2026-05-04 20:33 15.86341 -61.45412 1000 ft 115 kts 96°
2026-05-04 20:34 15.86219 -61.44594 1000 ft 114 kts 97°
2026-05-04 20:34 15.86093 -61.43777 1001 ft 114 kts 98°
2026-05-04 20:34 15.85989 -61.42966 1005 ft 116 kts 96°
2026-05-04 20:34 15.85863 -61.42138 1006 ft 116 kts 98°
2026-05-04 20:35 15.85767 -61.41306 1008 ft 116 kts 95°
2026-05-04 20:35 15.85739 -61.40473 1010 ft 115 kts 83°
2026-05-04 20:35 15.85867 -61.39645 1011 ft 117 kts 81°
2026-05-04 20:35 15.86005 -61.38804 1009 ft 118 kts 83°
2026-05-04 20:36 15.86138 -61.37972 1010 ft 116 kts 89°
2026-05-04 20:36 15.86059 -61.37132 1011 ft 117 kts 99°
2026-05-04 20:36 15.85929 -61.36356 1004 ft 100 kts 99°
2026-05-04 20:36 15.85801 -61.35637 999 ft 104 kts 99°
2026-05-04 20:37 15.85662 -61.34903 997 ft 103 kts 97°
2026-05-04 20:37 15.85627 -61.34158 995 ft 105 kts 90°
2026-05-04 20:37 15.85700 -61.33397 993 ft 107 kts 87°
2026-05-04 20:37 15.85802 -61.32620 996 ft 109 kts 86°
2026-05-04 20:38 15.85871 -61.31967 987 ft 75 kts 86°
2026-05-04 20:38 15.85931 -61.31453 803 ft 71 kts 80°
2026-05-04 20:38 15.86031 -61.30954 642 ft 68 kts 82°
2026-05-04 20:38 15.86159 -61.30519 569 ft 57 kts 79°
2026-05-04 20:39 15.86273 -61.30125 490 ft 58 kts 82°
2026-05-04 20:39 15.86369 -61.29690 411 ft 68 kts 81°
2026-05-04 20:39 15.86455 -61.29229 381 ft 58 kts 86°
2026-05-04 20:39 15.86560 -61.28813 326 ft 59 kts 90°
2026-05-04 20:40 15.86642 -61.28374 238 ft 68 kts 89°
2026-05-04 20:40 15.86718 -61.27886 114 ft 69 kts 85°
2026-05-04 20:40 15.86809 -61.27431 29 ft 57 kts 88°
2026-05-04 20:40 15.86871 -61.27094 22 ft 38 kts 78°
2026-05-04 20:41 15.86900 -61.27031 21 ft 6 kts 291°
2026-05-04 20:41 15.86881 -61.27088 22 ft 7 kts 252°
2026-05-04 20:41 15.86873 -61.27137 21 ft 7 kts 282°
2026-05-04 20:41 15.86915 -61.27160 21 ft 8 kts 344°
2026-05-04 20:42 15.86933 -61.27201 22 ft 7 kts 255°
2026-05-04 20:42 15.86925 -61.27237 22 ft 0 kts 256°